Total_Precipitation_Accumulation
0.08 0.07 0.07 0.07 0.08 0.07 0.08 0.08 0.09 0.09 0.10 0.10 0.14 0.18 0.25 0.34 0.38 0.44 0.41 0.25 0.37 0.51 0.25 0.07 0.08 0.07 0.03 0.04 0.13 0.09 0.26 0.36 0.35 0.41 0.26 0.12 0.05 0.01 0.01 0.00 0.00 0.01 0.03 0.07 0.11 0.26 0.11 0.00 0.00 0.00 0.00 0.00 0.00 0.00
0.08 0.09 0.11 0.12 0.15 0.14 0.14 0.14 0.13 0.13 0.14 0.14 0.16 0.17 0.22 0.36 0.53 0.69 0.69 0.38 0.30 0.60 0.50 0.10 0.04 0.05 0.08 0.10 0.17 0.23 0.18 0.07 0.13 0.22 0.18 0.09 0.07 0.01 0.00 0.00 0.00 0.00 0.01 0.00 0.00 0.01 0.00 0.00 0.00 0.00 0.00 0.00 0.00 0.00
0.12 0.16 0.18 0.19 0.23 0.26 0.26 0.26 0.23 0.19 0.16 0.19 0.25 0.21 0.26 0.28 0.37 0.53 0.61 0.57 0.63 0.79 0.58 0.26 0.09 0.02 0.02 0.04 0.09 0.31 0.36 0.18 0.21 0.14 0.18 0.21 0.19 0.02 0.00 0.00 0.00 0.00 0.00 0.00 0.00 0.00 0.00 0.00 0.00 0.00 0.00 0.00 0.00 0.00
0.15 0.20 0.20 0.23 0.25 0.30 0.29 0.29 0.27 0.21 0.18 0.19 0.29 0.35 0.28 0.30 0.27 0.39 0.51 0.42 0.55 0.74 0.66 0.28 0.02 0.00 0.00 0.01 0.04 0.09 0.10 0.11 0.15 0.21 0.35 0.27 0.15 0.03 0.00 0.00 0.00 0.00 0.00 0.00 0.00 0.00 0.00 0.00 0.00 0.00 0.00 0.00 0.00 0.00
0.20 0.22 0.20 0.22 0.23 0.22 0.24 0.24 0.22 0.21 0.18 0.26 0.39 0.40 0.33 0.26 0.24 0.25 0.31 0.31 0.28 0.55 0.60 0.18 0.03 0.00 0.00 0.01 0.05 0.08 0.08 0.10 0.19 0.31 0.35 0.20 0.07 0.04 0.03 0.01 0.00 0.00 0.01 0.00 0.00 0.00 0.00 0.00 0.00 0.00 0.00 0.00 0.00 0.00
0.62 0.50 0.35 0.28 0.25 0.18 0.16 0.18 0.16 0.23 0.21 0.23 0.33 0.40 0.31 0.22 0.24 0.19 0.34 0.26 0.20 0.31 0.57 0.38 0.12 0.01 0.00 0.01 0.07 0.12 0.17 0.19 0.20 0.21 0.18 0.09 0.01 0.01 0.08 0.03 0.00 0.00 0.00 0.00 0.00 0.00 0.00 0.00 0.00 0.00 0.00 0.00 0.00 0.00
0.86 1.13 0.82 0.43 0.29 0.21 0.15 0.19 0.18 0.24 0.30 0.23 0.26 0.27 0.30 0.36 0.42 0.38 0.28 0.10 0.08 0.15 0.45 0.51 0.25 0.11 0.06 0.04 0.08 0.10 0.12 0.12 0.13 0.14 0.10 0.06 0.01 0.04 0.11 0.01 0.00 0.00 0.00 0.00 0.00 0.00 0.00 0.00 0.00 0.00 0.00 0.00 0.00 0.00
1.09 1.38 1.57 0.96 0.61 0.38 0.23 0.24 0.23 0.26 0.34 0.31 0.19 0.18 0.28 0.44 0.57 0.46 0.27 0.15 0.09 0.21 0.37 0.47 0.24 0.07 0.05 0.05 0.06 0.06 0.08 0.09 0.11 0.10 0.05 0.01 0.01 0.05 0.04 0.00 0.00 0.00 0.00 0.00 0.00 0.00 0.00 0.00 0.00 0.00 0.00 0.00 0.00 0.00
1.14 1.32 1.48 1.25 0.99 0.51 0.31 0.33 0.28 0.19 0.23 0.32 0.33 0.30 0.44 0.53 0.51 0.58 0.32 0.16 0.16 0.39 0.44 0.18 0.06 0.04 0.03 0.05 0.06 0.07 0.06 0.08 0.07 0.04 0.01 0.01 0.02 0.01 0.00 0.00 0.00 0.00 0.00 0.00 0.00 0.00 0.00 0.00 0.00 0.00 0.00 0.00 0.00 0.00
0.91 0.86 0.91 0.99 0.87 0.50 0.35 0.42 0.38 0.22 0.18 0.25 0.48 0.51 0.51 0.59 0.35 0.22 0.22 0.26 0.28 0.29 0.18 0.11 0.02 0.04 0.04 0.05 0.09 0.07 0.07 0.05 0.05 0.01 0.02 0.05 0.02 0.00 0.00 0.00 0.00 0.00 0.00 0.00 0.00 0.00 0.00 0.00 0.00 0.00 0.00 0.00 0.00 0.00
0.39 0.27 0.26 0.17 0.09 0.09 0.12 0.21 0.24 0.14 0.14 0.24 0.34 0.34 0.27 0.19 0.11 0.12 0.14 0.13 0.16 0.13 0.08 0.07 0.05 0.07 0.08 0.07 0.07 0.06 0.05 0.02 0.01 0.00 0.02 0.02 0.02 0.00 0.00 0.00 0.00 0.00 0.00 0.00 0.00 0.00 0.00 0.01 0.01 0.02 0.01 0.00 0.00 0.00
0.23 0.14 0.07 0.04 0.02 0.02 0.05 0.13 0.13 0.06 0.07 0.05 0.03 0.05 0.04 0.03 0.04 0.07 0.07 0.03 0.03 0.02 0.02 0.02 0.05 0.06 0.08 0.06 0.07 0.07 0.01 0.01 0.00 0.01 0.04 0.02 0.02 0.00 0.00 0.00 0.00 0.00 0.00 0.00 0.00 0.00 0.00 0.01 0.00 0.03 0.03 0.01 0.01 0.01
0.14 0.06 0.04 0.03 0.04 0.06 0.04 0.02 0.02 0.02 0.01 0.03 0.06 0.06 0.04 0.03 0.03 0.02 0.01 0.00 0.00 0.00 0.00 0.01 0.03 0.04 0.04 0.03 0.03 0.03 0.02 0.01 0.00 0.02 0.01 0.01 0.00 0.00 0.00 0.00 0.00 0.00 0.00 0.00 0.00 0.00 0.00 0.01 0.01 0.03 0.08 0.03 0.02 0.04
0.09 0.07 0.08 0.07 0.04 0.01 0.00 0.00 0.00 0.00 0.00 0.01 0.01 0.00 0.01 0.01 0.00 0.00 0.00 0.00 0.00 0.00 0.00 0.01 0.02 0.01 0.01 0.01 0.01 0.01 0.00 0.01 0.01 0.01 0.01 0.01 0.00 0.00 0.00 0.00 0.00 0.00 0.00 0.00 0.00 0.00 0.01 0.01 0.01 0.02 0.08 0.10 0.13 0.07
0.13 0.10 0.04 0.02 0.00 0.00 0.00 0.00 0.00 0.00 0.00 0.00 0.00 0.00 0.00 0.01 0.01 0.01 0.01 0.01 0.01 0.00 0.00 0.00 0.00 0.00 0.00 0.00 0.00 0.00 0.00 0.01 0.00 0.00 0.00 0.00 0.00 0.00 0.00 0.00 0.00 0.00 0.00 0.00 0.00 0.01 0.01 0.01 0.04 0.04 0.05 0.12 0.13 0.10
0.07 0.05 0.03 0.01 0.00 0.00 0.00 0.00 0.00 0.00 0.00 0.00 0.01 0.00 0.01 0.01 0.02 0.02 0.01 0.01 0.01 0.00 0.00 0.00 0.00 0.00 0.00 0.00 0.00 0.00 0.00 0.00 0.00 0.00 0.00 0.00 0.00 0.00 0.00 0.00 0.00 0.00 0.00 0.00 0.01 0.02 0.03 0.03 0.07 0.08 0.07 0.10 0.10 0.09
0.00 0.02 0.03 0.02 0.00 0.00 0.00 0.00 0.00 0.00 0.00 0.00 0.02 0.02 0.01 0.00 0.02 0.02 0.02 0.01 0.01 0.00 0.00 0.00 0.00 0.00 0.00 0.00 0.00 0.00 0.00 0.00 0.00 0.00 0.00 0.00 0.00 0.00 0.00 0.00 0.00 0.00 0.00 0.00 0.01 0.01 0.03 0.04 0.11 0.14 0.13 0.08 0.11 0.11
0.00 0.02 0.01 0.00 0.00 0.00 0.00 0.00 0.00 0.00 0.01 0.02 0.02 0.04 0.02 0.03 0.02 0.02 0.02 0.02 0.01 0.00 0.00 0.00 0.00 0.00 0.00 0.00 0.00 0.00 0.00 0.00 0.00 0.00 0.00 0.00 0.00 0.00 0.00 0.00 0.00 0.00 0.00 0.01 0.02 0.03 0.05 0.07 0.10 0.10 0.16 0.12 0.16 0.22
0.00 0.00 0.00 0.00 0.00 0.00 0.00 0.00 0.00 0.00 0.03 0.03 0.03 0.02 0.02 0.02 0.03 0.03 0.02 0.03 0.03 0.03 0.02 0.02 0.01 0.01 0.00 0.01 0.01 0.00 0.00 0.01 0.01 0.00 0.00 0.00 0.00 0.00 0.00 0.00 0.00 0.00 0.00 0.01 0.03 0.06 0.08 0.11 0.14 0.15 0.14 0.14 0.19 0.19
0.00 0.00 0.00 0.00 0.00 0.00 0.00 0.00 0.00 0.00 0.01 0.01 0.01 0.02 0.02 0.02 0.02 0.02 0.01 0.01 0.02 0.03 0.03 0.03 0.01 0.02 0.01 0.02 0.02 0.02 0.00 0.00 0.02 0.03 0.00 0.00 0.00 0.00 0.00 0.00 0.00 0.00 0.01 0.02 0.05 0.08 0.12 0.09 0.09 0.15 0.16 0.22 0.26 0.20
0.00 0.00 0.00 0.00 0.00 0.00 0.00 0.01 0.01 0.02 0.01 0.01 0.01 0.01 0.01 0.01 0.01 0.00 0.00 0.01 0.01 0.01 0.01 0.01 0.01 0.01 0.00 0.00 0.00 0.00 0.00 0.01 0.03 0.06 0.04 0.04 0.01 0.01 0.01 0.00 0.00 0.01 0.04 0.05 0.07 0.07 0.11 0.12 0.14 0.19 0.22 0.20 0.19 0.18
0.00 0.00 0.00 0.00 0.00 0.00 0.00 0.02 0.01 0.00 0.00 0.01 0.00 0.01 0.01 0.01 0.01 0.01 0.01 0.01 0.01 0.01 0.01 0.01 0.00 0.00 0.00 0.00 0.00 0.00 0.02 0.03 0.02 0.03 0.03 0.07 0.06 0.02 0.01 0.00 0.03 0.03 0.05 0.07 0.09 0.10 0.10 0.12 0.16 0.20 0.19 0.16 0.17 0.19
0.00 0.00 0.00 0.00 0.00 0.00 0.00 0.00 0.00 0.00 0.00 0.00 0.00 0.00 0.00 0.00 0.00 0.01 0.01 0.01 0.01 0.02 0.02 0.02 0.01 0.00 0.03 0.01 0.00 0.00 0.03 0.06 0.04 0.02 0.03 0.03 0.02 0.01 0.02 0.01 0.03 0.10 0.07 0.04 0.11 0.13 0.12 0.14 0.19 0.19 0.18 0.15 0.14 0.16
0.00 0.00 0.00 0.00 0.00 0.00 0.00 0.00 0.00 0.00 0.00 0.00 0.00 0.00 0.00 0.00 0.00 0.01 0.00 0.01 0.04 0.04 0.03 0.03 0.05 0.05 0.01 0.01 0.03 0.03 0.03 0.05 0.04 0.01 0.04 0.09 0.03 0.00 0.02 0.03 0.04 0.07 0.12 0.13 0.13 0.13 0.13 0.16 0.17 0.20 0.18 0.18 0.23 0.20
0.00 0.00 0.00 0.00 0.00 0.00 0.00 0.00 0.00 0.00 0.00 0.00 0.00 0.00 0.00 0.00 0.00 0.00 0.02 0.03 0.04 0.04 0.03 0.04 0.06 0.13 0.15 0.05 0.01 0.02 0.04 0.15 0.11 0.06 0.01 0.08 0.08 0.04 0.03 0.04 0.06 0.09 0.14 0.17 0.12 0.13 0.14 0.18 0.21 0.20 0.24 0.25 0.23 0.23
0.00 0.01 0.01 0.01 0.00 0.00 0.00 0.00 0.00 0.00 0.00 0.00 0.00 0.00 0.01 0.00 0.00 0.02 0.04 0.06 0.04 0.06 0.08 0.08 0.10 0.08 0.06 0.13 0.15 0.08 0.06 0.14 0.20 0.13 0.03 0.10 0.15 0.16 0.12 0.11 0.11 0.10 0.12 0.14 0.14 0.15 0.19 0.21 0.22 0.25 0.35 0.43 0.31 0.25
0.00 0.01 0.01 0.01 0.00 0.00 0.00 0.00 0.00 0.00 0.00 0.00 0.00 0.00 0.00 0.00 0.01 0.05 0.08 0.07 0.08 0.08 0.12 0.15 0.17 0.16 0.13 0.09 0.10 0.12 0.17 0.22 0.28 0.20 0.16 0.18 0.18 0.21 0.23 0.21 0.18 0.16 0.18 0.17 0.18 0.20 0.20 0.23 0.23 0.19 0.24 0.35 0.38 0.28
0.01 0.01 0.00 0.00 0.00 0.00 0.00 0.00 0.00 0.00 0.00 0.01 0.00 0.00 0.01 0.02 0.05 0.07 0.07 0.08 0.12 0.11 0.12 0.14 0.16 0.20 0.20 0.19 0.19 0.19 0.18 0.19 0.17 0.15 0.16 0.17 0.20 0.21 0.25 0.26 0.27 0.24 0.22 0.23 0.20 0.23 0.22 0.19 0.19 0.17 0.15 0.19 0.33 0.32
0.01 0.01 0.01 0.00 0.00 0.00 0.00 0.00 0.00 0.01 0.01 0.01 0.01 0.01 0.02 0.05 0.08 0.08 0.07 0.09 0.09 0.10 0.08 0.06 0.05 0.10 0.13 0.17 0.20 0.26 0.27 0.23 0.19 0.17 0.19 0.22 0.21 0.23 0.28 0.27 0.25 0.20 0.20 0.32 0.37 0.31 0.27 0.19 0.16 0.14 0.13 0.13 0.22 0.29
0.00 0.01 0.00 0.00 0.00 0.00 0.00 0.01 0.01 0.01 0.01 0.02 0.02 0.01 0.02 0.04 0.08 0.09 0.08 0.07 0.08 0.09 0.12 0.15 0.16 0.16 0.17 0.18 0.17 0.15 0.24 0.33 0.31 0.31 0.28 0.24 0.29 0.45 0.41 0.31 0.27 0.27 0.19 0.16 0.31 0.39 0.26 0.23 0.23 0.16 0.10 0.10 0.10 0.13
0.00 0.01 0.00 0.00 0.00 0.01 0.01 0.01 0.01 0.01 0.01 0.01 0.01 0.01 0.01 0.03 0.05 0.08 0.08 0.10 0.12 0.11 0.11 0.11 0.12 0.16 0.19 0.18 0.20 0.19 0.21 0.30 0.32 0.30 0.29 0.25 0.25 0.29 0.32 0.31 0.29 0.23 0.18 0.12 0.10 0.12 0.13 0.11 0.11 0.11 0.10 0.13 0.12 0.10
0.00 0.00 0.00 0.00 0.00 0.01 0.00 0.00 0.01 0.01 0.01 0.01 0.01 0.01 0.01 0.02 0.04 0.05 0.06 0.05 0.05 0.07 0.11 0.14 0.14 0.13 0.21 0.26 0.31 0.40 0.49 0.39 0.31 0.24 0.21 0.21 0.18 0.19 0.19 0.18 0.19 0.17 0.14 0.11 0.10 0.14 0.09 0.08 0.10 0.08 0.08 0.10 0.10 0.07
0.00 0.00 0.00 0.00 0.00 0.00 0.00 0.00 0.00 0.00 0.01 0.01 0.01 0.01 0.01 0.02 0.02 0.02 0.04 0.09 0.14 0.15 0.15 0.16 0.17 0.21 0.23 0.28 0.31 0.30 0.27 0.27 0.32 0.27 0.20 0.17 0.15 0.13 0.10 0.08 0.08 0.07 0.05 0.06 0.09 0.09 0.09 0.05 0.07 0.07 0.06 0.07 0.08 0.07